Location: Diebersbach
(48.5163°N, 8.0558°E)
Time: 09:30:35
(UTC+00:00)

FALCON 9 DEB - Pass Details

Date: 20 June 2021
Orbit: 362 x 379 km, 53.0° (Epoch: 03 August)

Event Time Altitude Azimuth Distance (km) Brightness Sun altitude
Rises 00:32:38 0° 289° (WNW) 2,278 6.8 -16.7°
Reaches altitude 10° 00:34:47 10° 298° (WNW) 1,422 5.9 -16.6°
Maximum altitude 00:37:47 37° 8° (N) 622 4.5 -16.4°
Drops below altitude 10° 00:40:46 10° 78° (ENE) 1,416 6.1 -16.3°
Sets 00:42:54 0° 87° (E) 2,267 7.0 -16.2°
